[[{"header":{"parameterUnit":"m.s-1","parameterCategory":1,"la1":30.2991,"la2":30.254,"lo1":-89.0895,"lo2":-89.0444,"dy":0.0017,"dx":0.0017,"nx":28,"ny":28,"refTime":"2025-09-10T21:00:00:Z","depth":0,"parameterNumber":2,"parameterNumberName":"U-component_of_WINDS"},"data":[0,0,0,0,0,0,0,0,0,0,0,0,0,0,0,0,0,0,0,0,0,0,0,0,0,0,0,0,0,0,0,0,0,0,0,0,0,0,0,0,0,0,0,0,0,0,0,0,0,0,0,0,0,0,0,0,0,0,-3.0292,-3.0292,0,-3.0271,-3.0271,-3.0271,-3.0194,-3.0192,-3.0191,-3.0189,-3.0168,-3.0169,-3.017,0,0,0,0,0,0,0,0,0,0,0,0,0,-3.0268,-3.0268,-3.0292,-3.0292,-3.0292,-3.0271,-3.0271,-3.0271,-3.0194,-3.0192,-3.019,-3.0188,-3.0168,-3.0169,-3.017,0,0,0,0,0,0,0,0,0,0,0,0,0,-3.0266,-3.0269,-3.0292,-3.0251,-3.0247,-3.0271,-3.0271,-3.027,-3.0195,-3.0192,-3.0189,-3.0187,-3.0167,-3.0169,-3.017,-3.0233,0,0,-3.0175,-3.0176,0,0,0,0,0,0,0,0,-3.0266,-3.0267,-3.0257,-3.0254,-3.025,-3.0232,-3.0254,-3.0258,-3.0195,-3.0215,-3.0189,-3.0186,-3.0192,-3.0191,-3.0193,-3.0232,-3.0231,-3.0176,-3.0176,-3.0177,-3.0178,0,0,0,0,0,0,0,-3.0266,-3.0267,-3.0284,-3.0257,-3.0253,-3.0234,-3.0231,-3.0255,-3.0218,-3.0213,-3.0207,-3.0206,-3.0189,-3.0192,-3.0192,-3.0231,-3.0175,-3.0177,-3.0178,-3.0179,-3.0321,-3.0324,0,0,0,0,0,0,-3.0272,-3.0268,-3.0284,-3.0283,-3.0251,-3.0237,-3.0233,-3.0241,-3.0218,-3.0212,-3.0208,-3.0202,-3.019,-3.019,-3.0191,-3.0264,-3.0177,-3.0179,-3.018,-3.0319,-3.0322,-3.0325,0,0,0,0,0,0,-3.0272,-3.0274,-3.0285,-3.0274,-3.0274,-3.024,-3.0249,-3.0242,-3.0244,-3.0214,-3.0207,-3.0217,-3.0188,-3.0189,-3.0223,-3.0262,-3.0179,-3.0181,-3.0315,-3.032,-3.0324,-3.041,0,0,0,0,0,0,-3.0271,-3.0275,-3.0297,-3.0275,-3.0275,-3.0318,-3.0251,-3.0243,-3.0247,-3.0239,-3.0221,-3.0215,-3.0186,-3.0221,-3.0225,-3.0263,-3.0182,-3.0312,-3.0317,-3.0322,-3.0403,-3.0417,-3.0428,0,0,0,0,0,-3.0271,-3.0322,-3.0299,-3.0301,-3.0303,-3.032,-3.032,-3.0285,-3.025,-3.0274,-3.0254,-3.0216,-3.0257,-3.0226,-3.0229,-3.0268,-3.0309,-3.0316,-3.0322,-3.0398,-3.0414,-3.0428,0,0,0,0,0,0,-3.035,-3.0319,-3.0292,-3.0338,-3.0333,-3.0307,-3.0335,-3.0303,-3.0307,-3.03,-3.0256,-3.0253,-3.0295,-3.0284,-3.025,-3.0328,-3.0277,-3.0284,-3.0333,-3.0348,-3.036,-3.0363,-3.0183,0,0,0,0,0,-3.0373,-3.0389,-3.0361,-3.0404,-3.0403,-3.037,-3.0376,-3.035,-3.0342,-3.034,-3.0323,-3.0317,-3.0329,-3.0338,-3.0347,-3.0401,-3.0397,-3.043,-3.0442,-3.0452,-3.0459,-3.049,-3.0504,-3.0346,-3.0346,-3.0346,0,0,-3.042,-3.0405,-3.0418,-3.042,-3.0412,-3.0431,-3.0368,-3.039,-3.0405,-3.0343,-3.0375,-3.0363,-3.0354,-3.0399,-3.0418,-3.0392,-3.0502,-3.046,-3.0468,-3.047,-3.0498,-3.0513,-3.0526,-3.035,-3.035,-3.0349,0,0,-3.0517,-3.0506,-3.0542,-3.0536,-3.0526,-3.0504,-3.0512,-3.0492,-3.0482,-3.0513,-3.0468,-3.0484,-3.0505,-3.0501,-3.0502,-3.0598,-3.0564,-3.0602,-3.0666,-3.0696,-3.0709,-3.072,-3.0756,-3.077,-3.0609,-3.0609,-3.061,0,-3.0577,-3.0604,-3.0564,-3.059,-3.0593,-3.0538,-3.0575,-3.0571,-3.0564,-3.0568,-3.0538,-3.0564,-3.0554,-3.0599,-3.0623,-3.0624,-3.0634,-3.0605,-3.071,-3.0721,-3.073,-3.0765,-3.0778,-3.0614,-3.0614,-3.0613,-3.0613,0,-3.0679,-3.0699,-3.0729,-3.0725,-3.073,-3.0762,-3.0728,-3.0739,-3.0712,-3.0693,-3.0727,-3.0713,-3.0719,-3.0728,-3.0701,-3.0769,-3.0754,-3.0718,-3.0666,-3.0751,-3.0783,-3.0795,-3.0621,-3.062,-3.0618,-3.0617,0,0,-3.0826,-3.08,-3.0812,-3.081,-3.0795,-3.081,-3.0839,-3.0845,-3.0856,-3.0853,-3.0878,-3.0897,-3.0864,-3.0865,-3.0837,-3.0863,-3.0944,-3.0824,-3.0823,-3.0849,-3.102,-3.1049,-3.1065,-3.092,-3.0922,-3.0924,-3.1022,0,-3.0919,-3.0968,-3.0934,-3.0989,-3.1007,-3.0956,-3.0981,-3.0975,-3.0959,-3.0972,-3.0954,-3.0969,-3.0923,-3.0924,-3.0947,-3.0929,-3.0978,-3.0921,-3.0944,-3.0945,-3.095,-3.1081,-3.1111,-3.1205,-3.1034,-3.1036,-3.1037,0,-3.1035,-3.1039,-3.1096,-3.1078,-3.1085,-3.1109,-3.1112,-3.1125,-3.1118,-3.1104,-3.1106,-3.1073,-3.1101,-3.1049,-3.1088,-3.105,-3.1057,-3.105,-3.1053,-3.1055,-3.0998,-3.109,-3.1233,-3.1248,-3.1056,-3.1054,-3.1053,0,-3.114,-3.1158,-3.1195,-3.1194,-3.1175,-3.1193,-3.1186,-3.1176,-3.1182,-3.1185,-3.1189,-3.1196,-3.12,-3.1206,-3.1176,-3.114,-3.122,-3.1164,-3.1211,-3.1212,-3.1232,-3.1231,-3.1381,-3.1233,-3.1232,-3.1232,-3.1232,0,-3.1249,-3.1286,-3.1242,-3.1265,-3.1306,-3.1266,-3.1308,-3.1295,-3.1287,-3.1307,-3.1262,-3.1282,-3.1239,-3.1255,-3.1231,-3.1269,-3.127,-3.1261,-3.1255,-3.1267,-3.1268,-3.1272,-3.1266,-3.1236,-3.1235,-3.1234,-3.1234,0,-3.1373,-3.1344,-3.1382,-3.136,-3.1356,-3.1387,-3.1369,-3.139,-3.137,-3.1397,-3.14,-3.137,-3.1387,-3.1356,-3.1369,-3.1353,-3.1406,-3.1388,-3.1409,-3.1405,-3.1454,-3.1451,-3.1613,-3.1634,-3.147,-3.1472,-3.1473,0,-3.1446,-3.1474,-3.1456,-3.1466,-3.1462,-3.1479,-3.1485,-3.1448,-3.1457,-3.1451,-3.1473,-3.1486,-3.1494,-3.1523,-3.1503,-3.1513,-3.1496,-3.1552,-3.1497,-3.1509,-3.15,-3.15,-3.1504,-3.1565,-3.1567,-3.1568,-3.1569,0,-3.1579,-3.1564,-3.1575,-3.1583,-3.1592,-3.1595,-3.1596,-3.1607,-3.1567,-3.158,-3.1596,-3.1603,-3.1616,-3.163,-3.1635,-3.1628,-3.1593,-3.1587,-3.1598,-3.1612,-3.1624,-3.1621,-3.1443,-3.1584,-3.1582,-3.1581,-3.158,-3.158,-3.1681,-3.1705,-3.1696,-3.1711,-3.1707,-3.1709,-3.1728,-3.1712,-3.1725,-3.1733,-3.1709,-3.1732,-3.1725,-3.1728,-3.1725,-3.1743,-3.1718,-3.1734,-3.1739,-3.1744,-3.1753,-3.1619,-3.1743,-3.1742,-3.1742,-3.1742,-3.1741,0,-3.1815,-3.1807,-3.1821,-3.1823,-3.1835,-3.1801,-3.1799,-3.1812,-3.1833,-3.1829,-3.1838,-3.1858,-3.1872,-3.1853,-3.1863,-3.1881,-3.1866,-3.1885,-3.1885,-3.1884,-3.1773,-3.1763,-3.1898,-3.1898,-3.1898,-3.1898,-3.1898,-3.1898,-3.1886,-3.1924,-3.1908,-3.1944,-3.1936,-3.1958,-3.1961,-3.1963,-3.196,-3.1984,-3.1995,-3.1983,-3.1973,-3.1983,-3.1994,-3.1988,-3.1995,-3.2021,-3.201,-3.1907,-3.1892,-3.1877,-3.1868,-3.2022,-3.2022,-3.212,-3.2121,-3.2121]},{"header":{"parameterUnit":"m.s-1","parameterCategory":1,"la1":30.2991,"la2":30.254,"lo1":-89.0895,"lo2":-89.0444,"dy":0.0017,"dx":0.0017,"nx":28,"ny":28,"refTime":"2025-09-10T21:00:00:Z","depth":0,"parameterNumber":3,"parameterNumberName":"V-component_of_WINDS"},"data":[0,0,0,0,0,0,0,0,0,0,0,0,0,0,0,0,0,0,0,0,0,0,0,0,0,0,0,0,0,0,0,0,0,0,0,0,0,0,0,0,0,0,0,0,0,0,0,0,0,0,0,0,0,0,0,0,0,0,-1.5647,-1.5647,0,-1.5672,-1.5672,-1.5672,-1.5643,-1.5642,-1.5641,-1.564,-1.5665,-1.5667,-1.5668,0,0,0,0,0,0,0,0,0,0,0,0,0,-1.5575,-1.5576,-1.5647,-1.5647,-1.5648,-1.5672,-1.5672,-1.5672,-1.5643,-1.5642,-1.5641,-1.564,-1.5665,-1.5667,-1.5669,0,0,0,0,0,0,0,0,0,0,0,0,0,-1.5603,-1.5577,-1.5647,-1.5636,-1.5635,-1.5671,-1.5672,-1.5672,-1.5644,-1.5642,-1.564,-1.5639,-1.5664,-1.5666,-1.5669,-1.5717,0,0,-1.5676,-1.5678,0,0,0,0,0,0,0,0,-1.5602,-1.5606,-1.5637,-1.5637,-1.5636,-1.5653,-1.5655,-1.5687,-1.5644,-1.5641,-1.564,-1.5638,-1.5662,-1.5665,-1.5673,-1.5718,-1.5719,-1.5677,-1.5678,-1.5679,-1.568,0,0,0,0,0,0,0,-1.56,-1.5605,-1.5657,-1.5638,-1.5637,-1.563,-1.5632,-1.5661,-1.566,-1.5641,-1.5639,-1.5642,-1.5662,-1.5671,-1.5673,-1.5719,-1.5677,-1.5679,-1.568,-1.5681,-1.5805,-1.5806,0,0,0,0,0,0,-1.5599,-1.5603,-1.5656,-1.5657,-1.5615,-1.5632,-1.5635,-1.5649,-1.566,-1.566,-1.5643,-1.5641,-1.5667,-1.567,-1.5674,-1.5731,-1.5679,-1.5682,-1.5683,-1.5803,-1.5805,-1.5807,0,0,0,0,0,0,-1.5598,-1.5604,-1.5655,-1.563,-1.5636,-1.5635,-1.5651,-1.565,-1.5659,-1.5662,-1.5661,-1.5653,-1.5666,-1.5671,-1.5706,-1.5732,-1.5683,-1.5685,-1.5801,-1.5803,-1.5806,-1.5846,0,0,0,0,0,0,-1.5596,-1.5604,-1.5622,-1.563,-1.5637,-1.5687,-1.5653,-1.5652,-1.5664,-1.566,-1.5671,-1.5671,-1.5665,-1.5703,-1.5709,-1.5734,-1.5687,-1.5798,-1.5802,-1.5805,-1.5842,-1.5849,-1.5856,0,0,0,0,0,-1.5593,-1.5632,-1.5623,-1.563,-1.566,-1.5689,-1.5693,-1.5685,-1.5666,-1.5684,-1.5686,-1.567,-1.5728,-1.5707,-1.5713,-1.574,-1.5797,-1.5801,-1.5805,-1.5839,-1.5848,-1.5856,0,0,0,0,0,0,-1.5627,-1.5633,-1.5623,-1.5666,-1.5677,-1.5684,-1.5707,-1.5695,-1.5711,-1.5708,-1.5698,-1.57,-1.5738,-1.5742,-1.5719,-1.5787,-1.5759,-1.5765,-1.5783,-1.5791,-1.5798,-1.5797,-1.5689,0,0,0,0,0,-1.564,-1.5662,-1.5666,-1.5704,-1.571,-1.5707,-1.572,-1.5713,-1.5724,-1.5728,-1.5732,-1.5743,-1.5764,-1.5777,-1.5796,-1.5842,-1.5844,-1.5864,-1.587,-1.5876,-1.5881,-1.5906,-1.5915,-1.582,-1.582,-1.582,0,0,-1.5666,-1.5672,-1.5687,-1.5711,-1.5719,-1.5742,-1.5712,-1.5738,-1.5755,-1.5732,-1.5767,-1.577,-1.5781,-1.5822,-1.5841,-1.5827,-1.5907,-1.5881,-1.5885,-1.5888,-1.5911,-1.592,-1.5928,-1.5823,-1.5822,-1.5822,0,0,-1.5726,-1.5732,-1.5765,-1.5773,-1.5785,-1.5783,-1.579,-1.5799,-1.58,-1.5834,-1.5817,-1.5837,-1.5873,-1.5882,-1.5891,-1.5954,-1.594,-1.596,-1.5996,-1.602,-1.6027,-1.6034,-1.6057,-1.6065,-1.5965,-1.5965,-1.5965,0,-1.5757,-1.5792,-1.5783,-1.5811,-1.5822,-1.5801,-1.5834,-1.5842,-1.5859,-1.5868,-1.5852,-1.5896,-1.5902,-1.5945,-1.596,-1.5968,-1.5977,-1.5959,-1.6027,-1.6033,-1.6039,-1.6061,-1.607,-1.5967,-1.5967,-1.5967,-1.5966,0,-1.583,-1.5855,-1.5879,-1.5897,-1.591,-1.594,-1.5935,-1.595,-1.5942,-1.5941,-1.5976,-1.5983,-1.6003,-1.6012,-1.6005,-1.6054,-1.6046,-1.6028,-1.6001,-1.6051,-1.6072,-1.608,-1.5971,-1.597,-1.5969,-1.5968,0,0,-1.5914,-1.5925,-1.5934,-1.5942,-1.5953,-1.5972,-1.6,-1.602,-1.6033,-1.6045,-1.607,-1.6099,-1.6084,-1.6094,-1.6087,-1.6108,-1.6158,-1.6088,-1.6088,-1.6102,-1.6214,-1.6228,-1.6237,-1.6148,-1.615,-1.6151,-1.6213,0,-1.5975,-1.6025,-1.6017,-1.6066,-1.6088,-1.6069,-1.6093,-1.6103,-1.6103,-1.6122,-1.6122,-1.6144,-1.6121,-1.6127,-1.6147,-1.6148,-1.618,-1.6143,-1.6171,-1.6172,-1.6171,-1.6248,-1.6263,-1.6321,-1.6221,-1.6222,-1.6223,0,-1.6053,-1.6068,-1.6119,-1.6127,-1.6136,-1.6158,-1.6176,-1.6194,-1.6204,-1.6202,-1.6214,-1.6203,-1.6231,-1.6202,-1.6241,-1.6216,-1.6226,-1.6229,-1.6231,-1.6234,-1.6202,-1.6255,-1.6339,-1.6349,-1.6236,-1.6235,-1.6234,0,-1.611,-1.6143,-1.6178,-1.6185,-1.6194,-1.6211,-1.6215,-1.6224,-1.6236,-1.625,-1.6258,-1.6276,-1.6286,-1.63,-1.6294,-1.6273,-1.6334,-1.6304,-1.6334,-1.6335,-1.635,-1.6349,-1.6438,-1.6354,-1.6354,-1.6354,-1.6354,0,-1.618,-1.6212,-1.6204,-1.6225,-1.6261,-1.6251,-1.6286,-1.6288,-1.6295,-1.6317,-1.63,-1.6321,-1.6311,-1.6331,-1.6326,-1.6359,-1.6364,-1.6363,-1.6362,-1.6366,-1.6366,-1.6374,-1.637,-1.6356,-1.6356,-1.6355,-1.6355,0,-1.625,-1.6246,-1.6283,-1.6288,-1.629,-1.6316,-1.6321,-1.6341,-1.6339,-1.6367,-1.6372,-1.637,-1.6392,-1.6387,-1.6411,-1.6408,-1.6451,-1.6443,-1.6448,-1.6446,-1.6477,-1.6475,-1.6576,-1.6589,-1.6495,-1.6496,-1.6497,0,-1.6296,-1.632,-1.6328,-1.6341,-1.6347,-1.6369,-1.6381,-1.6372,-1.6385,-1.6398,-1.6417,-1.6437,-1.6454,-1.649,-1.649,-1.6509,-1.6503,-1.6537,-1.6505,-1.6509,-1.6505,-1.6504,-1.6506,-1.6544,-1.6545,-1.6545,-1.6546,0,-1.6377,-1.6374,-1.6392,-1.641,-1.6425,-1.6439,-1.645,-1.6462,-1.6453,-1.6469,-1.6492,-1.6504,-1.6529,-1.655,-1.6567,-1.6571,-1.6558,-1.6556,-1.6564,-1.6569,-1.6571,-1.6571,-1.6466,-1.6554,-1.6553,-1.6553,-1.6552,-1.6552,-1.6437,-1.6458,-1.6467,-1.6488,-1.6496,-1.6507,-1.6527,-1.6527,-1.6546,-1.6565,-1.6558,-1.6584,-1.6593,-1.6614,-1.6621,-1.6641,-1.6628,-1.6639,-1.6643,-1.6646,-1.665,-1.6566,-1.6644,-1.6643,-1.6643,-1.6643,-1.6643,0,-1.6519,-1.6524,-1.6543,-1.656,-1.6577,-1.6561,-1.6573,-1.6588,-1.6612,-1.6621,-1.6637,-1.6663,-1.6683,-1.6684,-1.6703,-1.6719,-1.6713,-1.6725,-1.6724,-1.6725,-1.666,-1.6652,-1.6729,-1.6729,-1.6729,-1.6729,-1.6729,-1.6729,-1.6564,-1.6598,-1.6596,-1.6634,-1.6638,-1.6663,-1.6672,-1.6682,-1.6689,-1.6719,-1.6736,-1.6736,-1.6743,-1.6762,-1.6779,-1.6779,-1.6787,-1.6801,-1.6799,-1.6738,-1.673,-1.6722,-1.6714,-1.6803,-1.6803,-1.6863,-1.6863,-1.6864]}]]